Regional Weather Roundup
Issued by NWS

Home | Current Version | Previous Version | Text Only | Print | Product List | Glossary Off
Versions: 1 2 3 4 5 6 7 8 9 10 11 12 13 14 15 16 17 18 19 20 21 22 23 24 25 26 27 28 29 30 31 32 33 34 35 36 37 38 39 40 41 42 43 44 45 46 47 48 49 50

000
ASUS43 KIND 080909
RWRIN

WEATHER ROUNDUP FOR INDIANA
NATIONAL WEATHER SERVICE INDIANAPOLIS IN
400 AM EST MON FEB 08 2016

NOTE: "FAIR" INDICATES FEW OR NO CLOUDS BELOW 12,000 FEET WITH NO
SIGNIFICANT WEATHER AND/OR OBSTRUCTIONS TO VISIBILITY.

* - STATION DOES NOT REPORT WEATHER SUCH AS PRECIPITATION OR FOG.

+ - STATION NOT QUALITY CONTROLLED BY THE NATIONAL WEATHER SERVICE.
    USE DATA WITH CAUTION...ESPECIALLY DEWPOINT AND RELATIVE
    HUMIDITY OBSERVATIONS.

INZ001>003-010>013-019-020-081000-
NORTHWEST INDIANA

CITY           SKY/WX    TMP DP  RH WIND       PRES   REMARKS
GARY /AIRPORT/ CLEAR     32  26  80 SW3       29.66F
LA PORTE +     PTCLDY    27  27 100 CALM      29.65F
MICHIGAN CITY+ PTCLDY    30  27  86 S3        29.65F
MONTICELLO +   PTCLDY    32  25  76 W3        29.67F
RENSSELAER +   CLEAR     32  28  86 W7        29.67F WCI  26
VALPARAISO     PTCLDY    28  26  92 CALM      29.65F

$$

LMZ046-743>745-081000-
SOUTHERN LAKE MICHIGAN

STATION/POSITION TIME  TEMP    WIND        PRES    WAVE
                       AIR SEA DIR/SP/G            HT
                 (UTC) (F)     (DEG/KT/KT) (MB)    (FT)
BURNS HARBOR     0800   35     210/ 10/ 12 1005.4F
MICHIGAN CITY    0800   34     190/  8/  9   N/A

$$

INZ004-005-014>016-021>024-081000-
NORTH CENTRAL INDIANA

CITY           SKY/WX    TMP DP  RH WIND       PRES   REMARKS
GOSHEN         PTCLDY    31  27  85 SW6       29.65F WCI  25
LOGANSPORT +   PTCLDY    30  27  86 S6        29.67F WCI  24
PERU/GRISSOM   MOCLDY    30  28  92 W3        29.64F
ROCHESTER +    PTCLDY    32  27  80 CALM      29.66F
SOUTH BEND     PTCLDY    27  23  85 CALM      29.65F
WARSAW +       CLEAR     28  27  93 CALM      29.66F

$$

INZ006>009-017-018-025>027-081000-
NORTHEAST INDIANA

CITY           SKY/WX    TMP DP  RH WIND       PRES   REMARKS
ANGOLA *+      CLEAR     28  28 100 CALM      29.63F
AUBURN +       PTCLDY    32  30  93 SW3       29.66F
FORT WAYNE     MOCLDY    32  29  88 SW5       29.66F WCI  27
HUNTINGTON +   MOCLDY    28  25  88 CALM      29.67S

$$

INZ028-029-035-036-043>045-051>053-081000-
WEST CENTRAL INDIANA

CITY           SKY/WX    TMP DP  RH WIND       PRES   REMARKS
GREENCASTLE +  LGT SNOW  32  28  86 CALM      29.71F
LAFAYETTE      CLOUDY    31  26  82 CALM      29.68F
TERRE HAUTE    MOCLDY    33  30  88 SW6       29.73F WCI  28

$$

INZ030>032-037>040-046>048-054>057-064-065-081000-
CENTRAL INDIANA

CITY           SKY/WX    TMP DP  RH WIND       PRES   REMARKS
FRANKFORT +    PTCLDY    32  31  96 SW5       29.70S WCI  27
GREENWOOD *+   CLOUDY    39  34  81 W9        29.71F
INDIANAPOLIS   LGT RAIN  37  31  78 SW13      29.69F
-EAGLE CREEK   CLOUDY    37  31  78 SW3       29.69F
KOKOMO *+        N/A     32  27  80 SW5       29.67F WCI  27
MARION +       PTCLDY    31  25  78 SW3       29.68F
MT COMFORT *+  CLOUDY    36  32  87 SW5       29.69F
SHELBYVILLE    CLOUDY    38  31  76 W7        29.69F
ZIONSVILLE +   CLOUDY    33  30  88 SW3       29.69F

$$

INZ033-034-041-042-049-050-058-059-081000-
EAST CENTRAL INDIANA

CITY           SKY/WX    TMP DP  RH WIND       PRES   REMARKS
MUNCIE         CLOUDY    38  31  76 SW6       29.67F

$$

INZ060-061-067>069-081>083-085>088-081000-
SOUTHWEST INDIANA

CITY           SKY/WX    TMP DP  RH WIND       PRES   REMARKS
EVANSVILLE     CLOUDY    37  33  85 CALM      29.77F
HUNTINGBURG *+ CLEAR     34  28  80 S7        29.77F WCI  28
WASHINGTON +   CLEAR     34  33  96 W6        29.75F WCI  28

$$

INZ062-063-066-070>080-084-089>092-081000-
SOUTH CENTRAL AND SOUTHEAST INDIANA

CITY           SKY/WX    TMP DP  RH WIND       PRES   REMARKS
BEDFORD +      CLOUDY    36  36 100 CALM      29.72F
BLOOMINGTON    CLOUDY    37  33  85 NW5       29.71F
MADISON *+     CLOUDY    41  32  70 SW7       29.73F
NORTH VERNON + MOCLDY    41  32  70 CALM      29.71F
SEYMOUR +      DRIZZLE   41  32  70 W14       29.73S

$$





USA.gov is the U.S. government's official web portal to all federal, state and local government web resources and services.